Simultaneous Nadir Overpasses (SNOs) Predictions

Prediction of SNOs between AQUA and NOAA-19 Satellite Orbit:

Table of predicted SNOs for the next 14.0 days since TLE Epoch: 3/30/2012
Index Date (AQUA) Time (AQUA) AQUA Lat,Lon Date (NOAA-19) Time (NOAA-19) NOAA-19 Lat,Lon Distance(km) Time Diff (sec)
1 03/31/2012 00:12:25 -51.43,-148.79 03/31/2012 00:12:06 -51.43,-148.80 0.50 19
2 03/31/2012 00:58:01 64.71, 27.14 03/31/2012 00:59:14 64.71, 27.36 10.30 73
3 04/02/2012 04:56:00 -54.09, 141.38 04/02/2012 04:56:05 -54.08, 141.35 1.79 5
4 04/04/2012 08:53:07 46.01,-100.78 04/04/2012 08:52:12 46.01,-100.79 1.05 55
5 04/04/2012 09:39:14 -57.93, 72.39 04/04/2012 09:39:42 -57.93, 72.42 1.87 28
6 04/06/2012 13:36:13 50.37,-170.12 04/06/2012 13:35:41 50.37,-170.11 0.67 32
7 04/06/2012 14:23:11 -59.23, 2.11 04/06/2012 14:24:04 -59.23, 2.09 1.33 53
8 04/08/2012 18:19:41 53.37, 120.17 04/08/2012 18:19:33 53.38, 120.17 0.10 8
9 04/08/2012 19:04:59 -67.85, -61.62 04/08/2012 19:06:13 -67.77, -61.25 18.21 74
10 04/10/2012 23:03:08 56.40, 50.66 04/10/2012 23:03:24 56.40, 50.67 0.48 16
11 04/13/2012 03:00:35 -47.42, 167.80 04/13/2012 02:59:41 -47.42, 167.82 1.10 54




NCC Satellite Simultaneous Nadir Overpasses (SNOs) Prediction Service
